Location: Arcueil
(48.7999°N, 2.3326°E)
Time: 20:26:16
(UTC+00:00)

EO-79 - Pass Details

Date: 20 June 2024
Orbit: 555 x 577 km, 98.0° (Epoch: 18 July)

Event Time Altitude Azimuth Distance (km) Brightness Sun altitude
Rises 02:30:19 0° 23° (NNE) 2,761 ? -9.6°
Reaches altitude 10° 02:32:43 10° 35° (NE) 1,856 ? -9.4°
Maximum altitude 02:36:11 28° 96° (E) 1,072 ? -9.0°
Drops below altitude 10° 02:39:37 10° 156° (SSE) 1,836 ? -8.7°
Sets 02:41:58 0° 168° (SSE) 2,724 ? -8.4°
